Time,TemperatureF,DewpointF,PressureIn,WindDirection,WindDirectionDegrees,WindSpeedMPH,WindSpeedGustMPH,Humidity,HourlyPrecipIn,Conditions,Clouds,dailyrainin,SoftwareType,DateUTC
2013-07-19 03:32:00,73.0,72.0,-100.00,North,6,1.0,-999.0,94,-99.99,,,-99.99,,2013-07-19 07:32:00,
2013-07-19 03:43:00,73.0,72.0,-100.00,NW,309,1.0,-999.0,94,-99.99,,,-99.99,,2013-07-19 07:43:00,
2013-07-19 04:33:00,73.0,71.0,-100.00,SSE,149,0.0,-999.0,94,-99.99,,,-99.99,,2013-07-19 08:33:00,
2013-07-19 04:43:00,73.0,71.0,-100.00,SE,131,0.0,-999.0,95,-99.99,,,-99.99,,2013-07-19 08:43:00,
2013-07-19 05:02:00,72.0,71.0,-100.00,SW,221,1.0,-999.0,94,-99.99,,,-99.99,,2013-07-19 09:02:00,
2013-07-19 05:32:00,72.0,71.0,-100.00,SW,231,1.0,-999.0,95,-99.99,,,-99.99,,2013-07-19 09:32:00,
2013-07-19 05:52:00,72.0,70.0,-100.00,West,260,1.0,-999.0,95,-99.99,,,-99.99,,2013-07-19 09:52:00,
2013-07-19 06:01:00,72.0,70.0,-100.00,West,265,2.0,-999.0,95,-99.99,,,-99.99,,2013-07-19 10:01:00,
2013-07-19 06:52:00,71.0,69.0,-100.00,SW,236,0.0,-999.0,96,-99.99,,,-99.99,,2013-07-19 10:52:00,
2013-07-19 07:02:00,71.0,70.0,-100.00,NNE,19,0.0,-999.0,96,-99.99,,,-99.99,,2013-07-19 11:02:00,
2013-07-19 08:33:00,74.0,70.0,-100.00,WSW,254,2.0,-999.0,87,-99.99,,,-99.99,,2013-07-19 12:33:00,
2013-07-19 08:43:00,75.0,70.0,-100.00,West,261,3.0,-999.0,86,-99.99,,,-99.99,,2013-07-19 12:43:00,
2013-07-19 09:02:00,75.0,71.0,-100.00,WSW,254,3.0,-999.0,85,-99.99,,,-99.99,,2013-07-19 13:02:00,
2013-07-19 09:12:00,76.0,71.0,-100.00,SSW,208,3.0,-999.0,84,-99.99,,,-99.99,,2013-07-19 13:12:00,
2013-07-19 09:32:00,77.0,71.0,-100.00,WSW,251,3.0,-999.0,82,-99.99,,,-99.99,,2013-07-19 13:32:00,
2013-07-19 10:52:00,79.0,72.0,-100.00,WSW,250,3.0,-999.0,79,-99.99,,,-99.99,,2013-07-19 14:52:00,
2013-07-19 11:11:00,80.0,72.0,-100.00,WSW,243,7.0,-999.0,75,-99.99,,,-99.99,,2013-07-19 15:11:00,
2013-07-19 11:32:00,82.0,72.0,-100.00,SW,234,8.0,-999.0,72,-99.99,,,-99.99,,2013-07-19 15:32:00,
2013-07-19 11:52:00,82.0,72.0,-100.00,WSW,241,7.0,-999.0,71,-99.99,,,-99.99,,2013-07-19 15:52:00,
2013-07-19 12:01:00,82.0,72.0,-100.00,WSW,241,7.0,-999.0,71,-99.99,,,-99.99,,2013-07-19 16:01:00,
2013-07-19 12:22:00,82.0,72.0,-100.00,WSW,253,6.0,-999.0,70,-99.99,,,-99.99,,2013-07-19 16:22:00,
2013-07-19 12:52:00,84.0,73.0,-100.00,WSW,242,6.0,-999.0,69,-99.99,,,-99.99,,2013-07-19 16:52:00,
2013-07-19 13:02:00,84.0,73.0,-100.00,WSW,244,9.0,-999.0,68,-99.99,,,-99.99,,2013-07-19 17:02:00,
2013-07-19 13:43:00,85.0,71.0,-100.00,WSW,241,8.0,-999.0,62,-99.99,,,-99.99,,2013-07-19 17:43:00,
2013-07-19 14:01:00,84.0,73.0,-100.00,WSW,253,8.0,-999.0,68,-99.99,,,-99.99,,2013-07-19 18:01:00,
2013-07-19 14:11:00,85.0,72.0,-100.00,SW,231,6.0,-999.0,64,-99.99,,,-99.99,,2013-07-19 18:11:00,
2013-07-19 14:22:00,85.0,72.0,-100.00,SW,231,6.0,-999.0,64,-99.99,,,-99.99,,2013-07-19 18:22:00,
2013-07-19 14:32:00,86.0,73.0,-100.00,WSW,255,8.0,-999.0,63,-99.99,,,-99.99,,2013-07-19 18:32:00,
2013-07-19 14:42:00,86.0,71.0,-100.00,WSW,251,11.0,-999.0,60,-99.99,,,-99.99,,2013-07-19 18:42:00,
2013-07-19 14:52:00,87.0,70.0,-100.00,West,263,9.0,-999.0,57,-99.99,,,-99.99,,2013-07-19 18:52:00,
2013-07-19 15:01:00,87.0,71.0,-100.00,WSW,256,7.0,-999.0,58,-99.99,,,-99.99,,2013-07-19 19:01:00,
2013-07-19 15:32:00,87.0,73.0,-100.00,SW,224,7.0,-999.0,62,-99.99,,,-99.99,,2013-07-19 19:32:00,
2013-07-19 15:43:00,87.0,73.0,-100.00,SW,224,7.0,-999.0,62,-99.99,,,-99.99,,2013-07-19 19:43:00,
2013-07-19 16:01:00,85.0,71.0,-100.00,WSW,245,9.0,-999.0,62,-99.99,,,-99.99,,2013-07-19 20:01:00,
2013-07-19 18:00:00,77.0,72.0,-100.00,SW,236,5.0,-999.0,85,-99.99,,,-99.99,,2013-07-19 22:00:00,
2013-07-19 18:32:00,77.0,72.0,-100.00,SW,236,5.0,-999.0,85,-99.99,,,-99.99,,2013-07-19 22:32:00,
2013-07-19 18:43:00,77.0,72.0,-100.00,SW,236,5.0,-999.0,85,-99.99,,,-99.99,,2013-07-19 22:43:00,
2013-07-19 18:52:00,77.0,72.0,-100.00,SW,236,5.0,-999.0,85,-99.99,,,-99.99,,2013-07-19 22:52:00,
2013-07-19 21:52:00,76.0,72.0,-100.00,WSW,252,1.0,-999.0,87,-99.99,,,-99.99,,2013-07-20 01:52:00,
2013-07-19 22:02:00,76.0,72.0,-100.00,WSW,252,1.0,-999.0,87,-99.99,,,-99.99,,2013-07-20 02:02:00,
2013-07-19 22:11:00,76.0,72.0,-100.00,WSW,252,1.0,-999.0,87,-99.99,,,-99.99,,2013-07-20 02:11:00,
2013-07-19 22:22:00,76.0,72.0,-100.00,WSW,252,1.0,-999.0,87,-99.99,,,-99.99,,2013-07-20 02:22:00,
2013-07-19 22:33:00,76.0,72.0,-100.00,WSW,252,1.0,-999.0,87,-99.99,,,-99.99,,2013-07-20 02:33:00,